sat.trackr.live / text

‹ back to catalog

STARLINK-5166

NORAD 54085 · 2022-136AL

PAYLOAD ACTIVE UNKNOWN

§ Identity

Operator
Country
US
Launch date
2022-10-20
Launch site
AFETR
Launch vehicle
Mass (kg)
RCS (m²)

Purposes: comms

External: N2YO · Heavens-Above · Gunter

§ Orbital elements

Epoch: 2026-05-24T22:23:04.079904Z

Period
95.44 min
Inclination
53.2153°
Eccentricity
0.0001792
Mean motion
15.08817980 rev/d
Perigee alt
538.6 km
Apogee alt
541.1 km
Semi-major
6,917.9 km
B*
-1.8132e-4
RAAN
351.8882°
Arg perigee
86.8980°
Mean anomaly
273.2217°
Rev number
19,849

§ Raw data

STARLINK-51661 54085U 22136AL  26144.93268611 -.00003171  00000+0 -18132-3 0  99902 54085  53.2153 351.8882 0001792  86.8980 273.2217 15.08817980198498

JSON: /api/v1/satellites/54085 · /tle

For live sub-satellite position, see the globe view (requires WebGL).

§ Visibility from observer

Set your observer location to see the next 7 days of passes ≥ 10°. The values pass through the URL so the page stays shareable.

No JS? Fill the form by hand. The geolocation button needs JavaScript.